Year,Month,Day,Hour,Minute,Value (Times are PST for windspeed in km/hr)
2019,08,20,00,00,0.90
2019,08,20,00,01,3.00
2019,08,20,00,02,2.40
2019,08,20,00,03,2.40
2019,08,20,00,04,1.00
2019,08,20,00,05,2.00
2019,08,20,00,06,1.90
2019,08,20,00,07,1.70
2019,08,20,00,08,0.00
2019,08,20,00,09,0.00
2019,08,20,00,10,0.00
2019,08,20,00,11,0.00
2019,08,20,00,12,0.00
2019,08,20,00,13,0.00
2019,08,20,00,14,0.60
2019,08,20,00,15,0.00
2019,08,20,00,16,0.00
2019,08,20,00,17,2.20
2019,08,20,00,18,2.60
2019,08,20,00,19,2.70
2019,08,20,00,20,2.60
2019,08,20,00,21,1.20
2019,08,20,00,22,0.00
2019,08,20,00,23,0.00
2019,08,20,00,24,0.00
2019,08,20,00,25,0.00
2019,08,20,00,26,0.00
2019,08,20,00,27,0.00
2019,08,20,00,28,0.00
2019,08,20,00,29,0.00
2019,08,20,00,30,0.00
2019,08,20,00,31,0.00
2019,08,20,00,32,0.70
2019,08,20,00,33,2.00
2019,08,20,00,34,1.20
2019,08,20,00,35,0.10
2019,08,20,00,36,0.00
2019,08,20,00,37,0.00
2019,08,20,00,38,0.20
2019,08,20,00,39,1.70
2019,08,20,00,40,0.20
2019,08,20,00,41,0.00
2019,08,20,00,42,0.00
2019,08,20,00,43,0.00
2019,08,20,00,44,0.00
2019,08,20,00,45,0.00
2019,08,20,00,46,0.00
2019,08,20,00,47,0.00
2019,08,20,00,48,0.00
2019,08,20,00,49,0.00
2019,08,20,00,50,0.00
2019,08,20,00,51,0.00
2019,08,20,00,52,0.00
2019,08,20,00,53,0.00
2019,08,20,00,54,0.00
2019,08,20,00,55,0.00
2019,08,20,00,56,0.00
2019,08,20,00,57,0.00
2019,08,20,00,58,1.30
2019,08,20,00,59,1.40
2019,08,20,01,00,0.00
2019,08,20,01,01,0.00
2019,08,20,01,02,0.00
2019,08,20,01,03,1.10
2019,08,20,01,04,1.30
2019,08,20,01,05,2.20
2019,08,20,01,06,2.30
2019,08,20,01,07,2.30
2019,08,20,01,08,2.70
2019,08,20,01,09,3.00
2019,08,20,01,10,1.80
2019,08,20,01,11,2.10
2019,08,20,01,12,2.70
2019,08,20,01,13,1.80
2019,08,20,01,14,1.10
2019,08,20,01,15,2.60
2019,08,20,01,16,3.00
2019,08,20,01,17,2.60
2019,08,20,01,18,3.30
2019,08,20,01,19,2.90
2019,08,20,01,20,4.10
2019,08,20,01,21,3.00
2019,08,20,01,22,3.60
2019,08,20,01,23,3.30
2019,08,20,01,24,3.80
2019,08,20,01,25,4.10
2019,08,20,01,26,3.80
2019,08,20,01,27,3.60
2019,08,20,01,28,3.40
2019,08,20,01,29,3.90
2019,08,20,01,30,3.50
2019,08,20,01,31,4.20
2019,08,20,01,32,3.50
2019,08,20,01,33,4.20
2019,08,20,01,34,4.00
2019,08,20,01,35,3.10
2019,08,20,01,36,3.60
2019,08,20,01,37,3.00
2019,08,20,01,38,3.10
2019,08,20,01,39,2.20
2019,08,20,01,40,3.40
2019,08,20,01,41,3.40
2019,08,20,01,42,3.90
2019,08,20,01,43,4.00
2019,08,20,01,44,3.10
2019,08,20,01,45,3.90
2019,08,20,01,46,3.40
2019,08,20,01,47,3.10
2019,08,20,01,48,3.40
2019,08,20,01,49,3.50
2019,08,20,01,50,2.90
2019,08,20,01,51,3.10
2019,08,20,01,52,2.40
2019,08,20,01,53,2.90
2019,08,20,01,54,1.90
2019,08,20,01,55,2.50
2019,08,20,01,56,2.30
2019,08,20,01,57,2.80
2019,08,20,01,58,3.50
2019,08,20,01,59,2.80
2019,08,20,02,00,1.90
2019,08,20,02,01,2.80
2019,08,20,02,02,3.70
2019,08,20,02,03,3.30
2019,08,20,02,04,3.10
2019,08,20,02,05,3.50
2019,08,20,02,06,3.80
2019,08,20,02,07,3.80
2019,08,20,02,08,3.60
2019,08,20,02,09,3.70
2019,08,20,02,10,3.50
2019,08,20,02,11,1.80
2019,08,20,02,12,2.30
2019,08,20,02,13,2.50
2019,08,20,02,14,2.40
2019,08,20,02,15,2.60
2019,08,20,02,16,3.50
2019,08,20,02,17,2.40
2019,08,20,02,18,3.10
2019,08,20,02,19,2.90
2019,08,20,02,20,3.70
2019,08,20,02,21,2.60
2019,08,20,02,22,2.80
2019,08,20,02,23,2.80
2019,08,20,02,24,2.40
2019,08,20,02,25,2.50
2019,08,20,02,26,2.40
2019,08,20,02,27,2.30
2019,08,20,02,28,3.20
2019,08,20,02,29,2.20
2019,08,20,02,30,2.90
2019,08,20,02,31,3.00
2019,08,20,02,32,2.80
2019,08,20,02,33,2.30
2019,08,20,02,34,2.70
2019,08,20,02,35,2.80
2019,08,20,02,36,3.00
2019,08,20,02,37,3.80
2019,08,20,02,38,3.90
2019,08,20,02,39,3.60
2019,08,20,02,40,3.20
2019,08,20,02,41,3.10
2019,08,20,02,42,3.50
2019,08,20,02,43,3.00
2019,08,20,02,44,2.30
2019,08,20,02,45,3.20
2019,08,20,02,46,3.20
2019,08,20,02,47,2.90
2019,08,20,02,48,3.00
2019,08,20,02,49,3.00
2019,08,20,02,50,3.20
2019,08,20,02,51,3.00
2019,08,20,02,52,2.50
2019,08,20,02,53,2.80
2019,08,20,02,54,2.60
2019,08,20,02,55,3.00
2019,08,20,02,56,3.40
2019,08,20,02,57,2.50
2019,08,20,02,58,2.20
2019,08,20,02,59,0.80
2019,08,20,03,00,0.00
2019,08,20,03,01,0.00
2019,08,20,03,02,0.30
2019,08,20,03,03,2.60
2019,08,20,03,04,2.30
2019,08,20,03,05,2.60
2019,08,20,03,06,1.30
2019,08,20,03,07,0.50
2019,08,20,03,08,0.00
2019,08,20,03,09,0.00
2019,08,20,03,10,0.00
2019,08,20,03,11,0.00
2019,08,20,03,12,0.00
2019,08,20,03,13,0.00
2019,08,20,03,14,1.00
2019,08,20,03,15,2.60
2019,08,20,03,16,2.90
2019,08,20,03,17,2.30
2019,08,20,03,18,2.70
2019,08,20,03,19,2.50
2019,08,20,03,20,2.00
2019,08,20,03,21,2.20
2019,08,20,03,22,1.80
2019,08,20,03,23,0.20
2019,08,20,03,24,2.20
2019,08,20,03,25,6.50
2019,08,20,03,26,3.00
2019,08,20,03,27,0.50
2019,08,20,03,28,0.00
2019,08,20,03,29,0.00
2019,08,20,03,30,1.40
2019,08,20,03,31,2.50
2019,08,20,03,32,1.10
2019,08,20,03,33,0.10
2019,08,20,03,34,0.00
2019,08,20,03,35,0.00
2019,08,20,03,36,0.00
2019,08,20,03,37,0.00
2019,08,20,03,38,0.00
2019,08,20,03,39,0.00
2019,08,20,03,40,0.00
2019,08,20,03,41,0.00
2019,08,20,03,42,0.00
2019,08,20,03,43,0.00
2019,08,20,03,44,0.30
2019,08,20,03,45,0.10
2019,08,20,03,46,0.00
2019,08,20,03,47,0.00
2019,08,20,03,48,0.00
2019,08,20,03,49,0.30
2019,08,20,03,50,3.00
2019,08,20,03,51,4.00
2019,08,20,03,52,3.80
2019,08,20,03,53,4.10
2019,08,20,03,54,3.80
2019,08,20,03,55,2.90
2019,08,20,03,56,2.90
2019,08,20,03,57,3.40
2019,08,20,03,58,3.20
2019,08,20,03,59,3.20
2019,08,20,04,00,3.70
2019,08,20,04,01,3.50
2019,08,20,04,02,2.90
2019,08,20,04,03,3.10
2019,08,20,04,04,4.30
2019,08,20,04,05,3.70
2019,08,20,04,06,4.30
2019,08,20,04,07,4.40
2019,08,20,04,08,3.90
2019,08,20,04,09,4.20
2019,08,20,04,10,3.30
2019,08,20,04,11,2.90
2019,08,20,04,12,2.30
2019,08,20,04,13,2.10
2019,08,20,04,14,2.50
2019,08,20,04,15,3.20
2019,08,20,04,16,2.60
2019,08,20,04,17,2.30
2019,08,20,04,18,3.10
2019,08,20,04,19,2.10
2019,08,20,04,20,0.80
2019,08,20,04,21,0.10
2019,08,20,04,22,0.00
2019,08,20,04,23,0.00
2019,08,20,04,24,0.00
2019,08,20,04,25,0.00
2019,08,20,04,26,0.00
2019,08,20,04,27,0.00
2019,08,20,04,28,0.00
2019,08,20,04,29,0.00
2019,08,20,04,30,0.00
2019,08,20,04,31,0.00
2019,08,20,04,32,0.60
2019,08,20,04,33,2.00
2019,08,20,04,34,2.30
2019,08,20,04,35,2.10
2019,08,20,04,36,2.40
2019,08,20,04,37,1.40
2019,08,20,04,38,1.60
2019,08,20,04,39,2.30
2019,08,20,04,40,2.20
2019,08,20,04,41,1.00
2019,08,20,04,42,0.00
2019,08,20,04,43,0.00
2019,08,20,04,44,0.00
2019,08,20,04,45,0.00
2019,08,20,04,46,0.00
2019,08,20,04,47,0.00
2019,08,20,04,48,0.00
2019,08,20,04,49,0.00
2019,08,20,04,50,0.00
2019,08,20,04,51,0.00
2019,08,20,04,52,0.00
2019,08,20,04,53,0.00
2019,08,20,04,54,0.00
2019,08,20,04,55,0.00
2019,08,20,04,56,0.00
2019,08,20,04,57,0.00
2019,08,20,04,58,0.00
2019,08,20,04,59,0.00
2019,08,20,05,00,0.00
2019,08,20,05,01,0.00
2019,08,20,05,02,0.00
2019,08,20,05,03,0.00
2019,08,20,05,04,0.00
2019,08,20,05,05,0.00
2019,08,20,05,06,0.00
2019,08,20,05,07,0.00
2019,08,20,05,08,0.00
2019,08,20,05,09,0.00
2019,08,20,05,10,0.00
2019,08,20,05,11,0.00
2019,08,20,05,12,0.00
2019,08,20,05,13,0.00
2019,08,20,05,14,0.00
2019,08,20,05,15,0.00
2019,08,20,05,16,0.00
2019,08,20,05,17,0.00
2019,08,20,05,18,0.00
2019,08,20,05,19,0.00
2019,08,20,05,20,0.00
2019,08,20,05,21,0.00
2019,08,20,05,22,0.00
2019,08,20,05,23,0.10
2019,08,20,05,24,0.00
2019,08,20,05,25,0.00
2019,08,20,05,26,0.10
2019,08,20,05,27,1.80
2019,08,20,05,28,3.00
2019,08,20,05,29,2.60
2019,08,20,05,30,2.90
2019,08,20,05,31,2.80
2019,08,20,05,32,2.00
2019,08,20,05,33,2.50
2019,08,20,05,34,1.10
2019,08,20,05,35,0.70
2019,08,20,05,36,0.00
2019,08,20,05,37,0.00
2019,08,20,05,38,0.00
2019,08,20,05,39,0.00
2019,08,20,05,40,0.00
2019,08,20,05,41,1.40
2019,08,20,05,42,3.20
2019,08,20,05,43,4.40
2019,08,20,05,44,4.10
2019,08,20,05,45,4.70
2019,08,20,05,46,4.50
2019,08,20,05,47,4.30
2019,08,20,05,48,4.30
2019,08,20,05,49,3.70
2019,08,20,05,50,3.00
2019,08,20,05,51,2.60
2019,08,20,05,52,1.70
2019,08,20,05,53,1.40
2019,08,20,05,54,0.40
2019,08,20,05,55,2.00
2019,08,20,05,56,1.40
2019,08,20,05,57,2.30
2019,08,20,05,58,3.30
2019,08,20,05,59,2.90
2019,08,20,06,00,2.70
2019,08,20,06,01,3.20
2019,08,20,06,02,2.60
2019,08,20,06,03,2.80
2019,08,20,06,04,3.10
2019,08,20,06,05,2.60
2019,08,20,06,06,2.80
2019,08,20,06,07,1.70
2019,08,20,06,08,2.10
2019,08,20,06,09,1.50
2019,08,20,06,10,1.50
2019,08,20,06,11,2.60
2019,08,20,06,12,1.90
2019,08,20,06,13,2.50
2019,08,20,06,14,2.80
2019,08,20,06,15,2.50
2019,08,20,06,16,3.40
2019,08,20,06,17,3.70
2019,08,20,06,18,3.00
2019,08,20,06,19,3.40
2019,08,20,06,20,3.50
2019,08,20,06,21,4.40
2019,08,20,06,22,4.40
2019,08,20,06,23,3.90
2019,08,20,06,24,4.00
2019,08,20,06,25,4.70
2019,08,20,06,26,3.50
2019,08,20,06,27,4.60
2019,08,20,06,28,2.60
2019,08,20,06,29,4.10
2019,08,20,06,30,2.70
2019,08,20,06,31,2.90
2019,08,20,06,32,3.50
2019,08,20,06,33,3.70
2019,08,20,06,34,2.40
2019,08,20,06,35,3.20
2019,08,20,06,36,3.40
2019,08,20,06,37,4.60
2019,08,20,06,38,5.10
2019,08,20,06,39,3.90
2019,08,20,06,40,3.50
2019,08,20,06,41,3.60
2019,08,20,06,42,3.50
2019,08,20,06,43,3.20
2019,08,20,06,44,4.30
2019,08,20,06,45,4.70
2019,08,20,06,46,5.40
2019,08,20,06,47,5.50
2019,08,20,06,48,4.30
2019,08,20,06,49,3.90
2019,08,20,06,50,4.20
2019,08,20,06,51,2.70
2019,08,20,06,52,4.20
2019,08,20,06,53,4.40
2019,08,20,06,54,4.70
2019,08,20,06,55,4.10
2019,08,20,06,56,6.00
2019,08,20,06,57,5.10
2019,08,20,06,58,3.40
2019,08,20,06,59,3.80
2019,08,20,07,00,3.50
2019,08,20,07,01,3.90
2019,08,20,07,02,3.80
2019,08,20,07,03,3.60
2019,08,20,07,04,3.00
2019,08,20,07,05,4.10
2019,08,20,07,06,3.90
2019,08,20,07,07,5.20
2019,08,20,07,08,6.70
2019,08,20,07,09,6.00
2019,08,20,07,10,6.80
2019,08,20,07,11,7.00
2019,08,20,07,12,6.80
2019,08,20,07,13,6.40
2019,08,20,07,14,6.40
2019,08,20,07,15,7.10
2019,08,20,07,16,6.60
2019,08,20,07,17,6.60
2019,08,20,07,18,7.80
2019,08,20,07,19,5.10
2019,08,20,07,20,7.10
2019,08,20,07,21,4.90
2019,08,20,07,22,4.90
2019,08,20,07,23,4.90
2019,08,20,07,24,7.00
2019,08,20,07,25,7.20
2019,08,20,07,26,6.90
2019,08,20,07,27,6.50
2019,08,20,07,28,5.90
2019,08,20,07,29,4.20
2019,08,20,07,30,5.70
2019,08,20,07,31,4.60
2019,08,20,07,32,5.60
2019,08,20,07,33,5.80
2019,08,20,07,34,6.20
2019,08,20,07,35,3.70
2019,08,20,07,36,6.00
2019,08,20,07,37,5.50
2019,08,20,07,38,5.60
2019,08,20,07,39,6.80
2019,08,20,07,40,7.90
2019,08,20,07,41,6.40
2019,08,20,07,42,6.40
2019,08,20,07,43,5.60
2019,08,20,07,44,4.20
2019,08,20,07,45,5.00
2019,08,20,07,46,7.00
2019,08,20,07,47,3.90
2019,08,20,07,48,6.40
2019,08,20,07,49,6.70
2019,08,20,07,50,6.40
2019,08,20,07,51,6.40
2019,08,20,07,52,6.40
2019,08,20,07,53,3.50
2019,08,20,07,54,5.10
2019,08,20,07,55,4.30
2019,08,20,07,56,4.50
2019,08,20,07,57,4.90
2019,08,20,07,58,4.30
2019,08,20,07,59,4.30
2019,08,20,08,00,6.50
2019,08,20,08,01,3.80
2019,08,20,08,02,2.20
2019,08,20,08,03,3.50
2019,08,20,08,04,3.50
2019,08,20,08,05,2.70
2019,08,20,08,06,3.10
2019,08,20,08,07,3.70
2019,08,20,08,08,3.90
2019,08,20,08,09,3.90
2019,08,20,08,10,3.70
2019,08,20,08,11,4.30
2019,08,20,08,12,4.30
2019,08,20,08,13,6.00
2019,08,20,08,14,5.50
2019,08,20,08,15,4.70
2019,08,20,08,16,2.60
2019,08,20,08,17,3.90
2019,08,20,08,18,5.00
2019,08,20,08,19,4.40
2019,08,20,08,20,3.10
2019,08,20,08,21,2.70
2019,08,20,08,22,3.70
2019,08,20,08,23,3.30
2019,08,20,08,24,4.80
2019,08,20,08,25,2.70
2019,08,20,08,26,3.20
2019,08,20,08,27,3.60
2019,08,20,08,28,2.80
2019,08,20,08,29,2.30
2019,08,20,08,30,3.90
2019,08,20,08,31,3.70
2019,08,20,08,32,4.00
2019,08,20,08,33,4.50
2019,08,20,08,34,2.90
2019,08,20,08,35,2.70
2019,08,20,08,36,3.10
2019,08,20,08,37,1.10
2019,08,20,08,38,2.20
2019,08,20,08,39,4.50
2019,08,20,08,40,3.20
2019,08,20,08,41,4.30
2019,08,20,08,42,3.20
2019,08,20,08,43,2.30
2019,08,20,08,44,3.90
2019,08,20,08,45,4.20
2019,08,20,08,46,2.70
2019,08,20,08,47,2.30
2019,08,20,08,48,4.60
2019,08,20,08,49,4.10
2019,08,20,08,50,3.20
2019,08,20,08,51,3.20
2019,08,20,08,52,4.70
2019,08,20,08,53,2.60
2019,08,20,08,54,3.00
2019,08,20,08,55,2.40
2019,08,20,08,56,6.10
2019,08,20,08,57,5.30
2019,08,20,08,58,5.80
2019,08,20,08,59,5.30
2019,08,20,09,00,5.70
2019,08,20,09,01,5.50
2019,08,20,09,02,5.20
2019,08,20,09,03,5.60
2019,08,20,09,04,4.70
2019,08,20,09,05,4.30
2019,08,20,09,06,4.70
2019,08,20,09,07,6.30
2019,08,20,09,08,3.90
2019,08,20,09,09,4.30
2019,08,20,09,10,6.40
2019,08,20,09,11,4.60
2019,08,20,09,12,8.30
2019,08,20,09,13,5.60
2019,08,20,09,14,4.10
2019,08,20,09,15,4.50
2019,08,20,09,16,3.00
2019,08,20,09,17,6.40
2019,08,20,09,18,8.60
2019,08,20,09,19,7.10
2019,08,20,09,20,4.50
2019,08,20,09,21,3.60
2019,08,20,09,22,2.90
2019,08,20,09,23,6.60
2019,08,20,09,24,3.50
2019,08,20,09,25,4.40
2019,08,20,09,26,4.80
2019,08,20,09,27,6.60
2019,08,20,09,28,5.80
2019,08,20,09,29,6.20
2019,08,20,09,30,3.90
2019,08,20,09,31,3.90
2019,08,20,09,32,4.90
2019,08,20,09,33,4.70
2019,08,20,09,34,6.00
2019,08,20,09,35,5.10
2019,08,20,09,36,4.20
2019,08,20,09,37,3.30
2019,08,20,09,38,5.60
2019,08,20,09,39,6.80
2019,08,20,09,40,5.30
2019,08,20,09,41,6.00
2019,08,20,09,42,6.50
2019,08,20,09,43,5.50
2019,08,20,09,44,7.30
2019,08,20,09,45,5.30
2019,08,20,09,46,6.60
2019,08,20,09,47,5.60
2019,08,20,09,48,8.80
2019,08,20,09,49,5.60
2019,08,20,09,50,5.10
2019,08,20,09,51,5.60
2019,08,20,09,52,5.50
2019,08,20,09,53,4.80
2019,08,20,09,54,5.90
2019,08,20,09,55,6.20
2019,08,20,09,56,6.30
2019,08,20,09,57,6.30
2019,08,20,09,58,7.10
2019,08,20,09,59,5.60
2019,08,20,10,00,4.50
2019,08,20,10,01,1.70
2019,08,20,10,02,5.70
2019,08,20,10,03,5.10
2019,08,20,10,04,6.50
2019,08,20,10,05,3.40
2019,08,20,10,06,10.50
2019,08,20,10,07,11.80
2019,08,20,10,08,7.10
2019,08,20,10,09,9.30
2019,08,20,10,10,8.50
2019,08,20,10,11,6.70
2019,08,20,10,12,4.40
2019,08,20,10,13,7.40
2019,08,20,10,14,7.70
2019,08,20,10,15,7.40
2019,08,20,10,16,6.30
2019,08,20,10,17,4.40
2019,08,20,10,18,9.60
2019,08,20,10,19,8.00
2019,08,20,10,20,6.00
2019,08,20,10,21,12.10
2019,08,20,10,22,15.20
2019,08,20,10,23,14.50
2019,08,20,10,24,9.60
2019,08,20,10,25,8.00
2019,08,20,10,26,7.40
2019,08,20,10,27,10.20
2019,08,20,10,28,12.50
2019,08,20,10,29,10.90
2019,08,20,10,30,12.80
2019,08,20,10,31,9.20
2019,08,20,10,32,4.60
2019,08,20,10,33,5.30
2019,08,20,10,34,6.90
2019,08,20,10,35,4.80
2019,08,20,10,36,6.10
2019,08,20,10,37,5.60
2019,08,20,10,38,9.50
2019,08,20,10,39,7.30
2019,08,20,10,40,9.00
2019,08,20,10,41,5.70
2019,08,20,10,42,5.30
2019,08,20,10,43,6.90
2019,08,20,10,44,6.00
2019,08,20,10,45,5.00
2019,08,20,10,46,8.90
2019,08,20,10,47,9.00
2019,08,20,10,48,4.70
2019,08,20,10,49,11.40
2019,08,20,10,50,11.50
2019,08,20,10,51,7.40
2019,08,20,10,52,5.30
2019,08,20,10,53,9.80
2019,08,20,10,54,6.80
2019,08,20,10,55,6.60
2019,08,20,10,56,7.30
2019,08,20,10,57,6.50
2019,08,20,10,58,11.30
2019,08,20,10,59,7.00
2019,08,20,11,00,6.00
2019,08,20,11,01,7.50
2019,08,20,11,02,8.80
2019,08,20,11,03,5.00
2019,08,20,11,04,6.90
2019,08,20,11,05,10.90
2019,08,20,11,06,6.80
2019,08,20,11,07,4.80
2019,08,20,11,08,5.90
2019,08,20,11,09,4.80
2019,08,20,11,10,7.20
2019,08,20,11,11,7.30
2019,08,20,11,12,6.40
2019,08,20,11,13,8.80
2019,08,20,11,14,15.40
2019,08,20,11,15,10.50
2019,08,20,11,16,6.10
2019,08,20,11,17,9.50
2019,08,20,11,18,9.30
2019,08,20,11,19,11.40
2019,08,20,11,20,10.00
2019,08,20,11,21,12.10
2019,08,20,11,22,14.60
2019,08,20,11,23,9.80
2019,08,20,11,24,8.70
2019,08,20,11,25,7.30
2019,08,20,11,26,9.70
2019,08,20,11,27,9.40
2019,08,20,11,28,10.90
2019,08,20,11,29,6.00
2019,08,20,11,30,8.40
2019,08,20,11,31,6.80
2019,08,20,11,32,8.50
2019,08,20,11,33,11.50
2019,08,20,11,34,6.30
2019,08,20,11,35,3.90
2019,08,20,11,36,2.70
2019,08,20,11,37,8.20
2019,08,20,11,38,9.80
2019,08,20,11,39,14.70
2019,08,20,11,40,12.20
2019,08,20,11,41,13.70
2019,08,20,11,42,9.30
2019,08,20,11,43,11.10
2019,08,20,11,44,11.60
2019,08,20,11,45,7.20
2019,08,20,11,46,6.10
2019,08,20,11,47,7.30
2019,08,20,11,48,10.00
2019,08,20,11,49,11.20
2019,08,20,11,50,9.10
2019,08,20,11,51,8.60
2019,08,20,11,52,8.50
2019,08,20,11,53,9.40
2019,08,20,11,54,10.00
2019,08,20,11,55,8.70
2019,08,20,11,56,4.80
2019,08,20,11,57,3.30
2019,08,20,11,58,5.80
2019,08,20,11,59,3.40
2019,08,20,12,00,7.20
2019,08,20,12,01,5.70
2019,08,20,12,02,5.10
2019,08,20,12,03,10.20
2019,08,20,12,04,9.40
2019,08,20,12,05,6.00
2019,08,20,12,06,9.50
2019,08,20,12,07,10.80
2019,08,20,12,08,11.30
2019,08,20,12,09,10.10
2019,08,20,12,10,6.10
2019,08,20,12,11,8.40
2019,08,20,12,12,8.80
2019,08,20,12,13,10.90
2019,08,20,12,14,8.00
2019,08,20,12,15,7.70
2019,08,20,12,16,6.20
2019,08,20,12,17,7.00
2019,08,20,12,18,7.90
2019,08,20,12,19,6.20
2019,08,20,12,20,7.20
2019,08,20,12,21,8.10
2019,08,20,12,22,7.00
2019,08,20,12,23,8.50
2019,08,20,12,24,4.90
2019,08,20,12,25,4.10
2019,08,20,12,26,3.20
2019,08,20,12,27,5.10
2019,08,20,12,28,8.20
2019,08,20,12,29,7.80
2019,08,20,12,30,6.10
2019,08,20,12,31,5.50
2019,08,20,12,32,5.60
2019,08,20,12,33,10.20
2019,08,20,12,34,4.90
2019,08,20,12,35,4.60
2019,08,20,12,36,6.00
2019,08,20,12,37,5.70
2019,08,20,12,38,4.80
2019,08,20,12,39,7.40
2019,08,20,12,40,4.60
2019,08,20,12,41,5.40
2019,08,20,12,42,6.90
2019,08,20,12,43,7.40
2019,08,20,12,44,6.00
2019,08,20,12,45,6.40
2019,08,20,12,46,7.20
2019,08,20,12,47,6.80
2019,08,20,12,48,7.50
2019,08,20,12,49,8.00
2019,08,20,12,50,5.30
2019,08,20,12,51,8.40
2019,08,20,12,52,6.90
2019,08,20,12,53,6.50
2019,08,20,12,54,8.80
2019,08,20,12,55,6.50
2019,08,20,12,56,9.10
2019,08,20,12,57,7.50
2019,08,20,12,58,6.00
2019,08,20,12,59,6.50
2019,08,20,13,00,4.90
2019,08,20,13,01,5.30
2019,08,20,13,02,7.20
2019,08,20,13,03,6.80
2019,08,20,13,04,5.80
2019,08,20,13,05,1.90
2019,08,20,13,06,4.30
2019,08,20,13,07,5.20
2019,08,20,13,08,5.60
2019,08,20,13,09,4.80
2019,08,20,13,10,3.10
2019,08,20,13,11,6.90
2019,08,20,13,12,4.30
2019,08,20,13,13,7.30
2019,08,20,13,14,4.20
2019,08,20,13,15,4.80
2019,08,20,13,16,6.00
2019,08,20,13,17,5.60
2019,08,20,13,18,5.20
2019,08,20,13,19,2.50
2019,08,20,13,20,4.30
2019,08,20,13,21,4.80
2019,08,20,13,22,7.00
2019,08,20,13,23,10.20
2019,08,20,13,24,9.40
2019,08,20,13,25,7.60
2019,08,20,13,26,6.10
2019,08,20,13,27,4.70
2019,08,20,13,28,4.90
2019,08,20,13,29,7.20
2019,08,20,13,30,6.50
2019,08,20,13,31,7.20
2019,08,20,13,32,7.40
2019,08,20,13,33,8.10
2019,08,20,13,34,8.90
2019,08,20,13,35,6.70
2019,08,20,13,36,7.10
2019,08,20,13,37,7.30
2019,08,20,13,38,5.80
2019,08,20,13,39,3.80
2019,08,20,13,40,5.60
2019,08,20,13,41,6.10
2019,08,20,13,42,3.40
2019,08,20,13,43,7.00
2019,08,20,13,44,3.90
2019,08,20,13,45,6.10
2019,08,20,13,46,4.70
2019,08,20,13,47,6.40
2019,08,20,13,48,5.40
2019,08,20,13,49,2.10
2019,08,20,13,50,5.30
2019,08,20,13,51,5.30
2019,08,20,13,52,3.50
2019,08,20,13,53,4.60
2019,08,20,13,54,6.90
2019,08,20,13,55,6.70
2019,08,20,13,56,5.00
2019,08,20,13,57,4.80
2019,08,20,13,58,7.90
2019,08,20,13,59,7.10
2019,08,20,14,00,5.70
2019,08,20,14,01,6.30
2019,08,20,14,02,7.20
2019,08,20,14,03,5.70
2019,08,20,14,04,7.20
2019,08,20,14,05,7.00
2019,08,20,14,06,3.00
2019,08,20,14,07,2.40
2019,08,20,14,08,3.80
2019,08,20,14,09,5.80
2019,08,20,14,10,6.30
2019,08,20,14,11,3.60
2019,08,20,14,12,4.30
2019,08,20,14,13,4.80
2019,08,20,14,14,4.30
2019,08,20,14,15,3.10
2019,08,20,14,16,3.40
2019,08,20,14,17,7.20
2019,08,20,14,18,8.00
2019,08,20,14,19,7.60
2019,08,20,14,20,8.70
2019,08,20,14,21,6.60
2019,08,20,14,22,9.80
2019,08,20,14,23,7.80
2019,08,20,14,24,6.80
2019,08,20,14,25,5.40
2019,08,20,14,26,7.60
2019,08,20,14,27,6.20
2019,08,20,14,28,6.20
2019,08,20,14,29,4.20
2019,08,20,14,30,4.40
2019,08,20,14,31,5.30
2019,08,20,14,32,6.40
2019,08,20,14,33,6.40
2019,08,20,14,34,5.90
2019,08,20,14,35,5.70
2019,08,20,14,36,4.70
2019,08,20,14,37,5.00
2019,08,20,14,38,4.40
2019,08,20,14,39,4.00
2019,08,20,14,40,6.40
2019,08,20,14,41,4.10
2019,08,20,14,42,6.60
2019,08,20,14,43,8.90
2019,08,20,14,44,7.70
2019,08,20,14,45,8.50
2019,08,20,14,46,7.20
2019,08,20,14,47,6.00
2019,08,20,14,48,5.80
2019,08,20,14,49,6.60
2019,08,20,14,50,6.20
2019,08,20,14,51,5.10
2019,08,20,14,52,6.40
2019,08,20,14,53,7.60
2019,08,20,14,54,9.80
2019,08,20,14,55,7.20
2019,08,20,14,56,6.00
2019,08,20,14,57,5.90
2019,08,20,14,58,6.10
2019,08,20,14,59,8.10
2019,08,20,15,00,6.40
2019,08,20,15,01,7.70
2019,08,20,15,02,5.90
2019,08,20,15,03,9.30
2019,08,20,15,04,5.90
2019,08,20,15,05,6.40
2019,08,20,15,06,8.40
2019,08,20,15,07,7.40
2019,08,20,15,08,11.10
2019,08,20,15,09,7.60
2019,08,20,15,10,9.70
2019,08,20,15,11,6.70
2019,08,20,15,12,9.60
2019,08,20,15,13,6.80
2019,08,20,15,14,7.60
2019,08,20,15,15,6.80
2019,08,20,15,16,5.10
2019,08,20,15,17,5.60
2019,08,20,15,18,7.20
2019,08,20,15,19,7.60
2019,08,20,15,20,8.70
2019,08,20,15,21,9.60
2019,08,20,15,22,11.60
2019,08,20,15,23,7.20
2019,08,20,15,24,7.60
2019,08,20,15,25,4.90
2019,08,20,15,26,6.40
2019,08,20,15,27,6.90
2019,08,20,15,28,6.00
2019,08,20,15,29,4.70
2019,08,20,15,30,6.70
2019,08,20,15,31,12.10
2019,08,20,15,32,5.40
2019,08,20,15,33,5.00
2019,08,20,15,34,6.10
2019,08,20,15,35,4.30
2019,08,20,15,36,4.00
2019,08,20,15,37,7.30
2019,08,20,15,38,7.50
2019,08,20,15,39,7.60
2019,08,20,15,40,6.00
2019,08,20,15,41,9.80
2019,08,20,15,42,7.50
2019,08,20,15,43,5.20
2019,08,20,15,44,5.30
2019,08,20,15,45,6.40
2019,08,20,15,46,10.10
2019,08,20,15,47,8.40
2019,08,20,15,48,9.40
2019,08,20,15,49,6.30
2019,08,20,15,50,3.10
2019,08,20,15,51,6.10
2019,08,20,15,52,9.00
2019,08,20,15,53,6.70
2019,08,20,15,54,5.50
2019,08,20,15,55,6.40
2019,08,20,15,56,5.10
2019,08,20,15,57,5.40
2019,08,20,15,58,4.30
2019,08,20,15,59,7.00
2019,08,20,16,00,7.10
2019,08,20,16,01,5.60
2019,08,20,16,02,5.00
2019,08,20,16,03,6.40
2019,08,20,16,04,8.70
2019,08,20,16,05,7.30
2019,08,20,16,06,7.40
2019,08,20,16,07,6.60
2019,08,20,16,08,4.90
2019,08,20,16,09,5.70
2019,08,20,16,10,7.20
2019,08,20,16,11,5.40
2019,08,20,16,12,5.80
2019,08,20,16,13,5.80
2019,08,20,16,14,5.60
2019,08,20,16,15,5.30
2019,08,20,16,16,8.10
2019,08,20,16,17,7.60
2019,08,20,16,18,5.50
2019,08,20,16,19,3.00
2019,08,20,16,20,8.20
2019,08,20,16,21,8.80
2019,08,20,16,22,7.10
2019,08,20,16,23,8.10
2019,08,20,16,24,7.00
2019,08,20,16,25,9.30
2019,08,20,16,26,7.60
2019,08,20,16,27,7.60
2019,08,20,16,28,11.30
2019,08,20,16,29,11.70
2019,08,20,16,30,9.60
2019,08,20,16,31,7.20
2019,08,20,16,32,3.80
2019,08,20,16,33,7.00
2019,08,20,16,34,5.40
2019,08,20,16,35,3.10
2019,08,20,16,36,3.90
2019,08,20,16,37,2.60
2019,08,20,16,38,6.70
2019,08,20,16,39,6.70
2019,08,20,16,40,5.80
2019,08,20,16,41,8.80
2019,08,20,16,42,5.80
2019,08,20,16,43,11.40
2019,08,20,16,44,9.30
2019,08,20,16,45,6.60
2019,08,20,16,46,4.70
2019,08,20,16,47,5.00
2019,08,20,16,48,6.90
2019,08,20,16,49,5.40
2019,08,20,16,50,7.90
2019,08,20,16,51,6.00
2019,08,20,16,52,4.60
2019,08,20,16,53,3.00
2019,08,20,16,54,6.30
2019,08,20,16,55,4.90
2019,08,20,16,56,5.30
2019,08,20,16,57,5.30
2019,08,20,16,58,6.30
2019,08,20,16,59,3.10
2019,08,20,17,00,4.30
2019,08,20,17,01,6.40
2019,08,20,17,02,6.30
2019,08,20,17,03,4.90
2019,08,20,17,04,3.40
2019,08,20,17,05,5.20
2019,08,20,17,06,7.60
2019,08,20,17,07,5.90
2019,08,20,17,08,6.80
2019,08,20,17,09,5.20
2019,08,20,17,10,4.50
2019,08,20,17,11,7.60
2019,08,20,17,12,5.60
2019,08,20,17,13,4.90
2019,08,20,17,14,6.60
2019,08,20,17,15,3.90
2019,08,20,17,16,5.80
2019,08,20,17,17,7.20
2019,08,20,17,18,7.80
2019,08,20,17,19,5.70
2019,08,20,17,20,5.10
2019,08,20,17,21,7.30
2019,08,20,17,22,5.90
2019,08,20,17,23,6.80
2019,08,20,17,24,7.30
2019,08,20,17,25,7.00
2019,08,20,17,26,8.60
2019,08,20,17,27,7.90
2019,08,20,17,28,5.90
2019,08,20,17,29,4.90
2019,08,20,17,30,5.00
2019,08,20,17,31,6.30
2019,08,20,17,32,5.90
2019,08,20,17,33,6.60
2019,08,20,17,34,3.50
2019,08,20,17,35,3.80
2019,08,20,17,36,3.90
2019,08,20,17,37,3.10
2019,08,20,17,38,4.70
2019,08,20,17,39,5.20
2019,08,20,17,40,6.00
2019,08,20,17,41,7.00
2019,08,20,17,42,7.10
2019,08,20,17,43,6.80
2019,08,20,17,44,6.00
2019,08,20,17,45,5.80
2019,08,20,17,46,2.40
2019,08,20,17,47,5.50
2019,08,20,17,48,4.20
2019,08,20,17,49,7.10
2019,08,20,17,50,5.30
2019,08,20,17,51,4.00
2019,08,20,17,52,3.90
2019,08,20,17,53,3.50
2019,08,20,17,54,3.80
2019,08,20,17,55,3.70
2019,08,20,17,56,2.50
2019,08,20,17,57,2.80
2019,08,20,17,58,4.60
2019,08,20,17,59,4.10
2019,08,20,18,00,4.80
2019,08,20,18,01,3.70
2019,08,20,18,02,3.90
2019,08,20,18,03,5.60
2019,08,20,18,04,9.10